Weather History for New Philadelphia, OH

Change the Weather History Date:

Tuesday, March 12, 2013

  Actual Average Record
Temperature  
Mean Temperature 40 °F 38 °F  
Max Temperature 45 °F 49 °F 75 °F (1977)
Min Temperature 34 °F 28 °F 3 °F (1984)
Degree Days  
Heating Degree Days 25 27  
Month to date heating degree days 335 343  
Since 1 July heating degree days 4465 4550  
Cooling Degree Days 0 0  
Month to date cooling degree days 0 0  
Year to date cooling degree days 0 0  
Moisture  
Dew Point 29 °F    
Average Humidity 68    
Maximum Humidity 76    
Minimum Humidity 59    
Precipitation  
Precipitation 0.01 in 0.09 in 0.76 in (2006)
Month to date precipitation 0.64 1.07  
Year to date precipitation 3.80 6.03  
Sea Level Pressure  
Sea Level Pressure 29.93 in    
Wind  
Wind Speed 8 mph (WSW)    
Max Wind Speed 12 mph    
Max Gust Speed 20 mph    
Visibility 9 miles    
Events Snow    
T = Trace of Precipitation, MM = Missing Value Source: NWS Daily Summary

Daily Weather History Graph

Daily Weather History Graph

Search for Another Location

Airport:

Trip Planner

Search our weather history database for the weather conditions in past years. The results will help you decide how hot, cold, wet, or windy it might be!

Date:

Astronomy

Mar. 12, 2013 Rise Set
Actual Time 7:41 AM EDT 7:29 PM EDT
Civil Twilight 7:14 AM EDT 7:56 PM EDT
Nautical Twilight 6:43 AM EDT 8:28 PM EDT
Astronomical Twilight 6:11 AM EDT 9:00 PM EDT
Moon 7:47 AM EDT (3/12) 8:43 PM EDT (3/12)
Length of Visible Light 12h 42m
Length of Day
11h 47m
New Moon, 1% of the Moon is Illuminated
Mar 12
New Moon
Mar 19
First Quarter
Mar 27
Full
Apr 3
Last Quarter
Apr 10
New

Hourly Weather History & Observations

Time (EDT) Temp. Windchill Dew Point Humidity Pressure Visibility Wind Dir Wind Speed Gust Speed Precip Events Conditions
12:53 AM 44.1 °F 41.5 °F 36.0 °F 73% 29.80 in 10.0 mi Variable 4.6 mph - 0.01 in   Overcast
1:53 AM 43.0 °F 39.5 °F 34.0 °F 71% 29.81 in 10.0 mi SW 5.8 mph - 0.01 in   Overcast
2:53 AM 42.1 °F 35.7 °F 33.1 °F 70% 29.83 in 10.0 mi West 11.5 mph 17.3 mph 0.00 in   Overcast
3:41 AM 41.0 °F 35.8 °F 33.8 °F 76% 29.84 in 10.0 mi West 8.1 mph - N/A   Overcast
3:48 AM 41.0 °F 34.7 °F 32.0 °F 70% 29.84 in 10.0 mi West 10.4 mph - N/A   Overcast
3:53 AM 41.0 °F 34.7 °F 30.9 °F 67% 29.85 in 10.0 mi West 10.4 mph - N/A   Overcast
4:53 AM 39.0 °F 34.0 °F 28.9 °F 67% 29.85 in 10.0 mi West 6.9 mph - N/A   Overcast
5:53 AM 39.0 °F 35.7 °F 30.0 °F 70% 29.87 in 10.0 mi West 4.6 mph - N/A   Overcast
6:31 AM 39.2 °F 33.6 °F 30.2 °F 70% 29.87 in 10.0 mi WSW 8.1 mph - N/A   Overcast
6:53 AM 37.9 °F 32.7 °F 30.0 °F 73% 29.89 in 10.0 mi West 6.9 mph - N/A   Overcast
7:06 AM 37.4 °F 32.8 °F 30.2 °F 75% 29.88 in 10.0 mi WSW 5.8 mph - N/A   Overcast
7:39 AM 37.4 °F 33.8 °F 30.2 °F 75% 29.89 in 10.0 mi WSW 4.6 mph - N/A   Overcast
7:50 AM 37.4 °F 33.8 °F 30.2 °F 75% 29.89 in 10.0 mi Variable 4.6 mph - N/A   Overcast
7:53 AM 37.9 °F 31.5 °F 30.0 °F 73% 29.91 in 10.0 mi WSW 9.2 mph - N/A   Overcast
8:18 AM 37.4 °F 33.8 °F 30.2 °F 75% 29.90 in 10.0 mi WSW 4.6 mph - N/A   Overcast
8:53 AM 37.0 °F 30.4 °F 30.0 °F 76% 29.92 in 10.0 mi West 9.2 mph - N/A   Overcast
9:26 AM 35.6 °F 30.7 °F 30.2 °F 81% 29.91 in 10.0 mi WSW 5.8 mph - 0.00 in   Overcast
9:53 AM 37.0 °F 31.6 °F 30.0 °F 76% 29.93 in 10.0 mi West 6.9 mph - 0.00 in   Overcast
10:01 AM 37.4 °F 32.1 °F 30.2 °F 75% 29.92 in 10.0 mi West 6.9 mph - N/A   Overcast
10:20 AM 37.4 °F 32.1 °F 30.2 °F 75% 29.92 in 10.0 mi SW 6.9 mph - N/A   Overcast
10:30 AM 37.4 °F 28.9 °F 28.4 °F 70% 29.93 in 10.0 mi WSW 13.8 mph 17.3 mph N/A   Overcast
10:53 AM 37.0 °F 31.0 °F 28.9 °F 73% 29.95 in 10.0 mi WSW 8.1 mph - N/A   Overcast
11:02 AM 37.4 °F 30.8 °F 28.4 °F 70% 29.93 in 10.0 mi SW 9.2 mph - N/A   Overcast
11:53 AM 37.0 °F 31.0 °F 28.0 °F 70% 29.95 in 9.0 mi West 8.1 mph 17.3 mph N/A   Overcast
12:45 PM 37.4 °F 29.8 °F 28.4 °F 70% 29.94 in 10.0 mi WSW 11.5 mph - 0.00 in   Overcast
12:53 PM 37.9 °F 31.5 °F 28.9 °F 70% 29.96 in 10.0 mi WSW 9.2 mph 16.1 mph 0.00 in   Overcast
1:15 PM 37.4 °F 32.1 °F 28.4 °F 70% 29.93 in 10.0 mi WSW 6.9 mph - N/A   Overcast
1:53 PM 39.0 °F 32.8 °F 28.9 °F 67% 29.95 in 10.0 mi WSW 9.2 mph - N/A   Overcast
2:23 PM 39.2 °F 34.2 °F 28.4 °F 65% 29.93 in 10.0 mi SW 6.9 mph - N/A   Overcast
2:53 PM 37.9 °F 31.5 °F 28.0 °F 68% 29.96 in 10.0 mi SW 9.2 mph 17.3 mph N/A   Overcast
3:49 PM 39.2 °F 32.0 °F 28.4 °F 65% 29.93 in 10.0 mi SW 11.5 mph 19.6 mph N/A   Overcast
3:53 PM 37.9 °F 30.5 °F 28.0 °F 68% 29.95 in 10.0 mi West 11.5 mph 19.6 mph N/A   Overcast
4:32 PM 37.4 °F 30.3 °F 26.6 °F 65% 29.93 in 10.0 mi WSW 10.4 mph - N/A   Overcast
4:53 PM 39.0 °F 32.3 °F 27.0 °F 62% 29.96 in 10.0 mi WSW 10.4 mph - N/A   Overcast
5:53 PM 39.0 °F 34.8 °F 26.1 °F 60% 29.97 in 10.0 mi West 5.8 mph - N/A   Overcast
6:53 PM 37.9 °F 31.5 °F 27.0 °F 65% 29.99 in 10.0 mi WSW 9.2 mph - N/A   Overcast
7:53 PM 37.9 °F 33.5 °F 27.0 °F 65% 30.00 in 10.0 mi WSW 5.8 mph - N/A   Overcast
8:53 PM 37.0 °F 31.6 °F 27.0 °F 67% 30.02 in 10.0 mi West 6.9 mph - N/A   Overcast
9:53 PM 37.0 °F 34.5 °F 26.1 °F 65% 30.01 in 10.0 mi South 3.5 mph - N/A   Overcast
10:53 PM 36.0 °F - 27.0 °F 70% 30.01 in 10.0 mi Calm Calm - N/A   Overcast
11:33 PM 35.6 °F 31.7 °F 28.4 °F 75% 30.00 in 2.5 mi WNW 4.6 mph - 0.00 in Snow Light Snow
11:43 PM 33.8 °F 30.8 °F 28.4 °F 81% 29.99 in 1.5 mi NW 3.5 mph - 0.00 in Snow Light Snow
11:49 PM 33.8 °F - 30.2 °F 87% 29.99 in 3.0 mi Calm Calm - 0.00 in Snow Light Snow
11:53 PM 34.0 °F - 30.0 °F 85% 30.01 in 4.0 mi Calm Calm - 0.00 in Snow Light Snow